This is the latest recevied weather packets stored in our database for station/object GBTWP-2. If no packets are shown the sender has not sent any weather packets the latest 10 day(s).
| Time | Temp. | Humidity | Pressure | Rain* | Wind** | Luminosity | Snow |
|---|---|---|---|---|---|---|---|
| 1787944620 | 23.33° C | 54% | 1024.4 hPa | 0 mm | - | 178 W/m² | - |
| 1787944318 | 23.33° C | 54% | 1024.5 hPa | 0 mm | - | 641 W/m² | - |
| 1787944020 | 22.78° C | 54% | 1024.5 hPa | 0 mm | - | 378 W/m² | - |
| 1787943717 | 22.22° C | 55% | 1024.7 hPa | 0 mm | - | 314 W/m² | - |
| 1787943420 | 22.22° C | 56% | 1024.6 hPa | 0 mm | - | 291 W/m² | - |
| 1787943117 | 22.78° C | 57% | 1024.7 hPa | 0 mm | - | 250 W/m² | - |
| 1787942820 | 22.78° C | 56% | 1024.7 hPa | 0 mm | - | 210 W/m² | - |
| 1787942518 | 22.78° C | 55% | 1024.9 hPa | 0 mm | - | 215 W/m² | - |
| 1787942221 | 22.78° C | 56% | 1024.8 hPa | 0 mm | - | 257 W/m² | - |
| 1787941917 | 22.78° C | 56% | 1024.8 hPa | 0 mm | - | 244 W/m² | - |
| 1787941618 | 23.33° C | 56% | 1025 hPa | 0 mm | - | 234 W/m² | - |
| 1787941318 | 23.33° C | 54% | 1024.8 hPa | 0 mm | - | 250 W/m² | - |
| 1787941020 | 23.89° C | 53% | 1024.8 hPa | 0 mm | - | 298 W/m² | - |
| 1787940718 | 23.33° C | 52% | 1024.8 hPa | 0 mm | - | 274 W/m² | - |
| 1787940417 | 23.33° C | 51% | 1024.8 hPa | 0 mm | - | 296 W/m² | - |
| 1787940120 | 23.89° C | 50% | 1024.9 hPa | 0 mm | - | 532 W/m² | - |
| 1787939818 | 23.89° C | 52% | 1025.1 hPa | 0 mm | - | 780 W/m² | - |
| 1787939518 | 23.33° C | 53% | 1025 hPa | 0 mm | - | 442 W/m² | - |
| 1787939220 | 23.33° C | 53% | 1024.9 hPa | 0 mm | - | 351 W/m² | - |
| 1787938920 | 23.33° C | 54% | 1024.9 hPa | 0 mm | - | 350 W/m² | - |
| 1787938620 | 22.78° C | 55% | 1025 hPa | 0 mm | - | 347 W/m² | - |
| 1787938318 | 22.22° C | 56% | 1025 hPa | 0 mm | - | 361 W/m² | - |
| 1787938025 | 22.22° C | 57% | 1024.7 hPa | 0 mm | - | 293 W/m² | - |
| 1787937720 | 22.22° C | 55% | 1025 hPa | 0 mm | - | 188 W/m² | - |
| 1787937420 | 22.78° C | 56% | 1025 hPa | 0 mm | - | 143 W/m² | - |
* Rain latest hour (hover to see other rain measurements)
** Current wind speed in m/s (hover to see current wind gust speed)